FW1555 Weather Reports


time (UTC)temp
C
wind
direction
speed
KPH
gust
KPH
rain 1hr
cm
rain 24hr
cm
rain mn
cm
humidity
%
barometer
mb
20260505070054 13 0 0.0 1.6 0.00 0.00 0.00 73 1009.3
20260505064546 13 0 0.0 0.0 0.00 0.00 0.00 72 1009.4
20260505063051 14 0 0.0 1.6 0.00 0.00 0.00 71 1009.4
20260505061552 14 0 0.0 1.6 0.00 0.00 0.00 70 1009.6
20260505060100 15 0 0.0 1.6 0.00 0.00 0.00 69 1009.6
20260505054544 15 0 0.0 8.0 0.00 0.00 0.00 68 1009.6
20260505053049 15 161 0.0 3.2 0.00 0.00 0.00 67 1009.7
20260505051549 15 159 0.0 8.0 0.00 0.00 0.00 66 1009.9
20260505041554 16 0 0.0 4.8 0.00 0.00 0.00 62 1010.0
20260505040056 16 0 0.0 6.4 0.00 0.00 0.00 61 1010.0
20260505034547 16 0 0.0 4.8 0.00 0.00 0.00 61 1010.0
20260505033045 16 0 0.0 11.3 0.00 0.00 0.00 60 1010.0
20260505031551 16 0 0.0 9.7 0.00 0.00 0.00 60 1010.1
20260505030108 16 0 0.0 4.8 0.00 0.00 0.00 61 1010.0
20260505024550 16 0 0.0 4.8 0.00 0.00 0.00 62 1010.0
20260505023051 16 0 0.0 4.8 0.00 0.00 0.00 62 1010.0
20260505021551 16 0 0.0 11.3 0.00 0.00 0.00 63 1010.2
20260505020050 15 0 0.0 3.2 0.00 0.00 0.00 65 1010.1
20260505014603 15 176 0.0 1.6 0.00 0.00 0.00 67 1010.0
20260505013053 15 0 0.0 0.0 0.00 0.00 0.00 67 1010.0
20260505011557 15 0 0.0 0.0 0.00 0.00 0.00 66 1009.7
20260505010055 16 0 0.0 1.6 0.00 0.00 0.00 65 1009.6
20260505004551 16 0 0.0 0.0 0.00 0.00 0.00 64 1009.4
20260505003057 16 0 0.0 0.0 0.00 0.00 0.00 63 1009.1
20260505001546 17 0 0.0 1.6 0.00 0.00 0.00 61 1008.8
20260505000051 18 0 0.0 3.2 0.00 0.00 0.00 57 1008.7
20260504234547 20 0 0.0 16.1 0.00 0.00 0.00 50 1008.5
20260504233050 21 172 0.0 22.5 0.00 0.00 0.00 42 1008.1
20260504231549 21 211 3.2 16.1 0.00 0.00 0.00 40 1007.9
20260504230042 21 236 4.8 19.3 0.00 0.00 0.00 39 1007.7
20260504224547 22 232 1.6 17.7 0.00 0.00 0.00 39 1007.7
20260504223100 22 234 3.2 22.5 0.00 0.00 0.00 38 1007.8
20260504221548 22 241 8.0 22.5 0.00 0.00 0.00 37 1007.7
20260504220051 22 0 4.8 24.1 0.00 0.00 0.00 37 1008.0
20260504214548 22 254 6.4 22.5 0.00 0.00 0.00 38 1008.0
20260504213047 22 0 6.4 19.3 0.00 0.00 0.00 36 1008.2
20260504211633 22 220 3.2 24.1 0.00 0.00 0.00 38 1008.2
20260504210054 22 237 8.0 22.5 0.00 0.00 0.00 37 1008.4
20260504204550 21 274 6.4 32.2 0.00 0.00 0.00 36 1008.2
20260504203057 22 220 6.4 30.6 0.00 0.00 0.00 37 1008.2
20260504201557 22 200 9.7 32.2 0.00 0.00 0.00 36 1008.4
20260504200047 22 274 11.3 25.7 0.00 0.00 0.00 37 1008.7
20260504194551 22 275 8.0 24.1 0.00 0.00 0.00 37 1008.8
20260504193044 22 263 9.7 17.7 0.00 0.00 0.00 39 1009.0
20260504191606 22 279 9.7 19.3 0.00 0.00 0.00 38 1009.1
20260504190104 21 271 12.9 25.7 0.00 0.00 0.00 37 1009.2
20260504184552 21 282 8.0 22.5 0.00 0.00 0.00 39 1009.4
20260504183045 21 259 4.8 22.5 0.00 0.00 0.00 40 1009.6
20260504181558 21 0 1.6 17.7 0.00 0.00 0.00 40 1009.6
20260504180052 20 273 12.9 24.1 0.00 0.00 0.00 38 1009.9
20260504174553 20 265 6.4 27.4 0.00 0.00 0.00 39 1010.0
20260504173055 20 148 6.4 19.3 0.00 0.00 0.00 39 1010.2
20260504171551 20 257 9.7 22.5 0.00 0.00 0.00 40 1010.3
20260504081548 7 0 0.0 4.8 0.00 0.00 0.00 67 1012.5